Regional Weather Roundup
Issued by NWS

Home | Current Version | Previous Version | Text Only | Print | Product List | Glossary Off
Versions: 1 2 3 4 5 6 7 8 9 10 11 12 13 14 15 16 17 18 19 20 21 22 23 24 25 26 27 28 29 30 31 32 33 34 35 36 37 38 39 40 41 42 43 44 45 46 47 48 49 50

859
ASUS43 KTOP 241959
RWRKS

WEATHER ROUNDUP FOR KANSAS
NATIONAL WEATHER SERVICE GOODLAND KS
300 PM CDT SUN JUL 24 2016

NOTE:  "FAIR" INDICATES FEW OR NO CLOUDS BELOW 12,000 FEET WITH NO
SIGNIFICANT WEATHER AND/OR OBSTRUCTIONS TO VISIBILITY.

KSZ001>006-013>018-027>032-041>047-242100-
NORTHWEST KANSAS

CITY           SKY/WX    TMP DP  RH WIND       PRES   REMARKS
GOODLAND       SUNNY     91  57  31 SE17      30.10S
HAYS           CLOUDY    93  66  40 NE16G23   29.98R HX  96
HILL CITY      SUNNY     88  68  51 NE10G18   30.04S
RUSSELL        SUNNY     93  67  42 NE13G20   29.96S HX  96
$$

KSZ061>065-074>080-084>089-242100-
SOUTHWEST KANSAS

CITY           SKY/WX    TMP DP  RH WIND       PRES   REMARKS
DODGE CITY     MOSUNNY   91  66  43 W7        29.99S
ELKHART          N/A     87  63  44 E9          N/A
GARDEN CITY    CLOUDY    90  71  53 S6        30.00F HX  96
GREAT BEND     SUNNY     97  64  34 SE12      29.94S HX  99
LIBERAL        CLOUDY    90  63  40 NE3       30.02F
$$

KSZ066>073-081>083-090>101-242100-
SOUTHEAST KANSAS

CITY           SKY/WX    TMP DP  RH WIND       PRES   REMARKS
CHANUTE        SUNNY     96  75  50 S9        29.94F HX 108
COFFEYVILLE    SUNNY    100  71  39 S8        29.93F HX 108
HUTCHINSON     CLOUDY    93  70  46 E5        29.94F HX  99
NEWTON         PTSUNNY   94  69  44 S5        29.95F HX  99
PARSONS        SUNNY     99  73  43 W5        29.95F HX 109
WICHITA INTL   CLOUDY    98  68  37 SE9       29.91F HX 103
WICHITA JABRA  CLOUDY    94  72  48 SE5       29.93F HX 102
WINFIELD       SUNNY    102  65  29 S12       29.92F HX 105
$$

KSZ007>012-019>026-033>040-048>060-102>105-242100-
NORTHEAST KANSAS

CITY           SKY/WX    TMP DP  RH WIND       PRES   REMARKS
CONCORDIA      CLOUDY    80  70  71 E8        30.00S
EMPORIA        CLOUDY    95  69  42 W6        29.93F HX 100
LAWRENCE       CLOUDY    94  75  54 N3        29.93S HX 105
MANHATTAN      CLOUDY    89  72  56 E3        29.96S HX  96
OLATHE IND     MOSUNNY   92  75  57 NW6       29.95S HX 103
OLATHE EXE     MOSUNNY   92  74  55 SW5       29.94F HX 101
SALINA         CLOUDY    93  69  45 NE14      29.95S HX  98
TOPEKA BILLARD CLOUDY    91  73  55 N3        29.94R HX  99
TOPEKA FORBES  CLOUDY    92  74  55 NE5       29.95S HX 101
$$




USA.gov is the U.S. government's official web portal to all federal, state and local government web resources and services.